Terug naar catalogus

DELTA 1 DEB

ActiefUNKNOWN
NORAD 7016·DEBRIS·🇺🇸 United States

Gelanceerd Nov 6, 1973 vanaf Vandenberg Space Force Base

Loading…

Volgende Passages (komende 24 uur)

TLE

VersSource: Space-Track

Epoch: Sep 13, 2026, 19:28 UTC

1 07016U 73086G   26256.81113449  .00000182  00000-0  37822-2 0  9995
2 07016 101.7028 353.8283 0511160 241.6167 248.2916 11.45464972209565

Volg DELTA 1 DEB in realtime met AllMySat

Download on the App Store